GW4461 Weather Reports


time (UTC)temp
C
wind
direction
speed
KPH
gust
KPH
rain 1hr
cm
rain 24hr
cm
rain mn
cm
humidity
%
barometer
mb
20260504100540 4 347 0.0 0.0 0.00 0.00 0.00 85 1013.8
20260504081933 5 294 4.8 6.4 0.00 0.00 0.00 84 1014.0
20260504081430 5 220 3.2 4.8 0.00 0.00 0.00 83 1014.1
20260504080926 5 286 4.8 4.8 0.00 0.00 0.00 85 1014.2
20260504080423 5 244 3.2 3.2 0.00 0.00 0.00 86 1014.0
20260504070350 6 51 4.8 6.4 0.00 0.00 0.00 74 1014.7
20260504050737 8 347 0.0 0.0 0.00 0.00 0.00 59 1013.1
20260504050235 8 336 0.0 0.0 0.00 0.00 0.00 57 1013.4
20260504045732 8 333 0.0 0.0 0.00 0.00 0.00 58 1013.2
20260504045227 8 341 0.0 0.0 0.00 0.00 0.00 57 1013.2
20260504044725 8 2 0.0 1.6 0.00 0.00 0.00 58 1013.1
20260504044222 9 323 0.0 0.0 0.00 0.00 0.00 58 1013.0
20260504043719 9 3 1.6 1.6 0.00 0.00 0.00 56 1013.0
20260504043216 9 352 0.0 1.6 0.00 0.00 0.00 55 1013.0
20260504042714 9 16 1.6 3.2 0.00 0.00 0.00 54 1013.0
20260504042210 10 347 0.0 1.6 0.00 0.00 0.00 54 1012.8
20260504041706 10 279 1.6 1.6 0.00 0.00 0.00 54 1012.6
20260504041201 10 354 3.2 3.2 0.00 0.00 0.00 52 1012.6
20260504040659 10 96 1.6 1.6 0.00 0.00 0.00 52 1012.6
20260504040156 10 350 1.6 1.6 0.00 0.00 0.00 54 1012.4
20260504035652 10 352 0.0 0.0 0.00 0.00 0.00 55 1012.4
20260504035149 10 345 0.0 0.0 0.00 0.00 0.00 53 1012.2
20260504034647 10 335 0.0 0.0 0.00 0.00 0.00 56 1012.2
20260504034143 10 342 0.0 0.0 0.00 0.00 0.00 56 1011.8
20260504033641 10 349 0.0 0.0 0.00 0.00 0.00 60 1011.8
20260504033138 10 327 0.0 0.0 0.00 0.00 0.00 61 1011.8
20260504032635 10 313 0.0 0.0 0.00 0.00 0.00 63 1011.7
20260504032132 10 342 0.0 0.0 0.00 0.00 0.00 66 1011.4
20260504031629 10 323 0.0 0.0 0.00 0.00 0.00 63 1011.6
20260504031125 11 326 0.0 0.0 0.00 0.00 0.00 57 1011.4
20260504030622 11 44 4.8 4.8 0.00 0.00 0.00 46 1011.0
20260504030119 11 322 1.6 1.6 0.00 0.00 0.00 49 1010.9
20260504025616 12 319 1.6 1.6 0.00 0.00 0.00 49 1010.8
20260504025113 12 0 1.6 3.2 0.00 0.00 0.00 46 1010.8
20260504024610 12 359 1.6 1.6 0.00 0.00 0.00 46 1010.2
20260504024107 12 18 1.6 3.2 0.00 0.00 0.00 46 1010.5
20260504023603 12 183 4.8 4.8 0.00 0.00 0.00 46 1010.5
20260504023059 13 327 0.0 1.6 0.00 0.00 0.00 47 1010.0
20260504022555 13 334 0.0 1.6 0.00 0.00 0.00 46 1009.9
20260504022051 13 0 3.2 3.2 0.00 0.00 0.00 46 1009.8
20260504021549 13 345 0.0 0.0 0.00 0.00 0.00 47 1009.7
20260504021046 14 348 3.2 4.8 0.00 0.00 0.00 45 1009.7
20260504020543 14 350 1.6 3.2 0.00 0.00 0.00 46 1009.6
20260504020039 14 341 3.2 3.2 0.00 0.00 0.00 46 1009.1
20260504015536 15 334 0.0 1.6 0.00 0.00 0.00 48 1009.2
20260504015032 15 348 0.0 1.6 0.00 0.00 0.00 47 1009.3
20260504014528 15 313 0.0 0.0 0.00 0.00 0.00 46 1008.9
20260504014025 15 169 4.8 6.4 0.00 0.00 0.00 45 1008.9
20260504013523 15 351 0.0 0.0 0.00 0.00 0.00 48 1009.1
20260504013020 15 333 1.6 3.2 0.00 0.00 0.00 46 1008.9
20260504012517 15 345 0.0 0.0 0.00 0.00 0.00 46 1009.1
20260504012015 16 334 0.0 0.0 0.00 0.00 0.00 44 1009.1
20260504011511 16 344 0.0 0.0 0.00 0.00 0.00 44 1008.9
20260504011008 16 17 3.2 4.8 0.00 0.00 0.00 43 1008.9
20260504010503 16 120 1.6 3.2 0.00 0.00 0.00 44 1009.1
20260504005959 16 323 1.6 3.2 0.00 0.00 0.00 43 1008.8
20260504005456 16 335 0.0 1.6 0.00 0.00 0.00 42 1008.8
20260504004954 16 358 1.6 1.6 0.00 0.00 0.00 42 1008.8
20260504004451 17 269 1.6 3.2 0.00 0.00 0.00 41 1008.9
20260504003948 17 98 1.6 3.2 0.00 0.00 0.00 41 1008.6
20260504003444 17 48 1.6 1.6 0.00 0.00 0.00 41 1008.8
20260504002941 17 338 3.2 4.8 0.00 0.00 0.00 39 1008.8
20260504002438 17 276 0.0 1.6 0.00 0.00 0.00 40 1008.5
20260504001935 18 147 4.8 4.8 0.00 0.00 0.00 39 1008.4
20260504001433 18 335 1.6 3.2 0.00 0.00 0.00 38 1008.5
20260504000930 18 35 3.2 3.2 0.00 0.00 0.00 38 1008.1
20260504000426 18 347 1.6 3.2 0.00 0.00 0.00 38 1008.3
20260503235924 18 332 1.6 1.6 0.00 0.00 0.00 39 1008.2
20260503235422 18 7 0.0 1.6 0.00 0.00 0.00 37 1008.0
20260503234919 17 0 4.8 4.8 0.00 0.00 0.00 38 1008.0
20260503234416 18 63 4.8 4.8 0.00 0.00 0.00 38 1007.7
20260503233914 19 116 3.2 6.4 0.00 0.00 0.00 37 1007.7
20260503233410 20 92 3.2 3.2 0.00 0.00 0.00 37 1007.7
20260503232907 20 341 3.2 6.4 0.00 0.00 0.00 32 1007.2
20260503232404 21 107 3.2 4.8 0.00 0.00 0.00 31 1007.2
20260503231902 21 2 1.6 3.2 0.00 0.00 0.00 32 1007.4
20260503231359 21 117 4.8 6.4 0.00 0.00 0.00 31 1006.9
20260503230855 21 178 6.4 9.7 0.00 0.00 0.00 31 1006.9
20260503230351 21 105 4.8 4.8 0.00 0.00 0.00 31 1006.9
20260503225849 22 92 3.2 4.8 0.00 0.00 0.00 28 1006.9
20260503225345 22 133 3.2 6.4 0.00 0.00 0.00 29 1006.7
20260503224842 22 87 4.8 9.7 0.00 0.00 0.00 26 1006.9
20260503224339 22 330 1.6 1.6 0.00 0.00 0.00 24 1006.6
20260503223836 21 324 0.0 1.6 0.00 0.00 0.00 26 1006.7
20260503223334 22 303 4.8 6.4 0.00 0.00 0.00 23 1006.9
20260503222830 22 263 6.4 6.4 0.00 0.00 0.00 22 1006.8
20260503222328 22 344 3.2 4.8 0.00 0.00 0.00 23 1006.7
20260503221826 22 234 9.7 12.9 0.00 0.00 0.00 23 1006.9
20260503221325 22 271 8.0 9.7 0.00 0.00 0.00 24 1006.6
20260503220820 22 342 3.2 6.4 0.00 0.00 0.00 23 1006.7
20260503220317 22 239 3.2 3.2 0.00 0.00 0.00 24 1007.0
20260503215814 22 246 3.2 3.2 0.00 0.00 0.00 22 1007.0
20260503215311 22 273 8.0 11.3 0.00 0.00 0.00 23 1006.9
20260503214809 22 160 3.2 4.8 0.00 0.00 0.00 24 1006.8
20260503214301 22 18 3.2 4.8 0.00 0.00 0.00 22 1007.0
20260503213758 22 191 4.8 6.4 0.00 0.00 0.00 22 1007.2
20260503213255 22 118 8.0 11.3 0.00 0.00 0.00 22 1007.4
20260503212752 22 289 6.4 11.3 0.00 0.00 0.00 23 1007.2
20260503212250 23 21 0.0 1.6 0.00 0.00 0.00 23 1006.9
20260503211747 22 0 0.0 1.6 0.00 0.00 0.00 25 1007.0
20260503211243 21 252 3.2 3.2 0.00 0.00 0.00 23 1007.4
20260503210739 21 215 3.2 3.2 0.00 0.00 0.00 24 1007.6
20260503210237 21 332 4.8 4.8 0.00 0.00 0.00 23 1007.4
20260503205732 21 119 6.4 6.4 0.00 0.00 0.00 24 1007.6
20260503205228 22 309 3.2 3.2 0.00 0.00 0.00 23 1007.6
20260503204724 21 246 4.8 6.4 0.00 0.00 0.00 24 1007.6
20260503204223 21 211 3.2 4.8 0.00 0.00 0.00 24 1007.5
20260503203719 21 270 6.4 9.7 0.00 0.00 0.00 24 1007.7
20260503203217 21 319 1.6 3.2 0.00 0.00 0.00 27 1008.0
20260503202714 21 261 3.2 4.8 0.00 0.00 0.00 26 1007.8
20260503202212 21 296 3.2 4.8 0.00 0.00 0.00 25 1008.0
20260503201710 21 351 3.2 4.8 0.00 0.00 0.00 26 1007.8
20260503201207 21 225 3.2 4.8 0.00 0.00 0.00 26 1008.2
20260503200703 21 208 1.6 1.6 0.00 0.00 0.00 28 1008.4
20260503200200 21 270 4.8 6.4 0.00 0.00 0.00 25 1008.3
20260503195656 20 247 3.2 4.8 0.00 0.00 0.00 30 1008.5
20260503195154 20 285 4.8 6.4 0.00 0.00 0.00 27 1008.6
20260503194650 21 249 6.4 6.4 0.00 0.00 0.00 29 1008.3
20260503194146 20 311 0.0 0.0 0.00 0.00 0.00 29 1008.5
20260503193643 20 95 3.2 3.2 0.00 0.00 0.00 31 1008.3
20260503193138 20 291 3.2 3.2 0.00 0.00 0.00 30 1008.5
20260503192634 20 302 3.2 3.2 0.00 0.00 0.00 29 1008.5
20260503192130 20 353 3.2 4.8 0.00 0.00 0.00 30 1008.6
20260503191627 20 8 1.6 1.6 0.00 0.00 0.00 31 1008.9
20260503191124 20 256 3.2 3.2 0.00 0.00 0.00 31 1009.0
20260503190621 20 319 0.0 1.6 0.00 0.00 0.00 33 1009.2
20260503190118 20 94 3.2 4.8 0.00 0.00 0.00 31 1009.2
20260503185614 20 121 3.2 3.2 0.00 0.00 0.00 30 1009.6
20260503185109 20 283 1.6 3.2 0.00 0.00 0.00 31 1009.4
20260503184604 19 279 4.8 4.8 0.00 0.00 0.00 33 1009.7
20260503184101 20 315 1.6 1.6 0.00 0.00 0.00 30 1009.6
20260503183557 18 353 3.2 3.2 0.00 0.00 0.00 32 1009.7
20260503183055 18 322 4.8 4.8 0.00 0.00 0.00 34 1009.6
20260503182553 18 253 3.2 4.8 0.00 0.00 0.00 31 1009.8
20260503182051 18 31 1.6 1.6 0.00 0.00 0.00 33 1009.9
20260503181548 18 347 1.6 3.2 0.00 0.00 0.00 33 1009.8
20260503181044 18 224 3.2 3.2 0.00 0.00 0.00 32 1009.8
20260503180541 19 202 4.8 6.4 0.00 0.00 0.00 31 1009.9
20260503180038 19 265 0.0 1.6 0.00 0.00 0.00 32 1010.1
20260503175536 18 89 1.6 3.2 0.00 0.00 0.00 33 1010.1
20260503175033 18 284 3.2 4.8 0.00 0.00 0.00 33 1010.2
20260503174530 18 94 4.8 4.8 0.00 0.00 0.00 34 1010.2
20260503174026 18 114 6.4 11.3 0.00 0.00 0.00 32 1010.2
20260503173520 17 110 3.2 3.2 0.00 0.00 0.00 34 1010.2
20260503173017 18 284 4.8 6.4 0.00 0.00 0.00 32 1010.2
20260503172515 19 96 3.2 4.8 0.00 0.00 0.00 34 1010.1
20260503172012 18 347 1.6 1.6 0.00 0.00 0.00 35 1010.5
20260503171508 18 77 1.6 1.6 0.00 0.00 0.00 32 1010.7
20260503171006 18 111 0.0 1.6 0.00 0.00 0.00 33 1010.6
20260503170502 18 274 0.0 0.0 0.00 0.00 0.00 34 1010.5
20260503150854 12 244 1.6 1.6 0.00 0.00 0.00 46 1011.0
20260503150350 11 222 3.2 4.8 0.00 0.00 0.00 45 1010.8
20260503140314 5 313 0.0 0.0 0.00 0.00 0.00 72 1011.6
20260503131239 3 314 0.0 1.6 0.00 0.00 0.00 62 1011.4
20260503130737 1 324 0.0 0.0 0.00 0.00 0.00 74 1011.7
20260503130234 1 310 1.6 1.6 0.00 0.00 0.00 75 1011.3
20260503120154 0 314 0.0 0.0 0.00 0.00 0.00 78 1011.6
20260503110621 0 304 1.6 1.6 0.00 0.00 0.00 80 1012.1
20260503110118 0 323 0.0 0.0 0.00 0.00 0.00 80 1012.0